START_TIME,STEP,MOV.,M29,t_acc.,H22,t_acc.,H26,t_acc.,H30,t_acc.
1979-07-06 00:00:32.610 ,0,0,0.,24.0,0.,24.0,0.,24.0,0.,24.0
1979-07-06 00:00:56.610 ,1,1,0.,24.0,0.,24.0,0.,24.0,0.,24.0
1979-07-06 00:01:20.610 ,1,0,0.,24.0,0.,24.0,0.,24.0,0.,24.0
1979-07-06 00:01:44.610 ,2,1,0.,24.0,0.,24.0,0.,24.0,0.,24.0
1979-07-06 00:02:08.610 ,2,0,0.,24.0,0.,24.0,0.,24.0,0.,24.0
1979-07-06 00:02:32.610 ,3,1,0.,24.0,0.,24.0,0.,24.0,0.,24.0
1979-07-06 00:02:56.610 ,3,0,0.,24.0,0.,24.0,0.,24.0,0.,24.0
1979-07-06 00:03:20.610 ,4,1,0.,24.0,0.,24.0,0.,24.0,0.,24.0
1979-07-06 00:03:44.610 ,4,0,0.,24.0,0.,24.0,0.,24.0,0.,24.0
1979-07-06 00:04:08.610 ,5,1,0.,24.0,0.,24.0,0.,24.0,0.,24.0
1979-07-06 00:04:32.610 ,5,0,0.,24.0,0.,24.0,0.,24.0,0.,24.0
1979-07-06 00:04:56.610 ,6,1,0.,24.0,0.,24.0,0.,24.0,0.,24.0
1979-07-06 00:05:20.610 ,6,0,0.,24.0,0.,24.0,0.,24.0,0.,24.0
1979-07-06 00:05:44.610 ,7,1,0.,24.0,0.,24.0,0.,24.0,0.,24.0
1979-07-06 00:06:08.610 ,7,0,0.,24.0,0.,24.0,0.,24.0,0.,24.0
1979-07-06 00:06:32.610 ,7,1,0.,24.0,0.,24.0,0.,24.0,0.,24.0
1979-07-06 00:06:56.610 ,7,0,0.,24.0,0.,24.0,0.,24.0,0.,24.0
1979-07-06 00:07:20.610 ,6,1,0.,24.0,0.,24.0,0.,24.0,0.,24.0
1979-07-06 00:07:44.610 ,6,0,0.,24.0,0.,24.0,0.,24.0,0.,24.0
1979-07-06 00:08:08.610 ,5,1,0.,24.0,0.,24.0,0.,24.0,0.,24.0
1979-07-06 00:08:32.610 ,5,0,0.,24.0,0.,24.0,0.,24.0,0.,24.0
1979-07-06 00:08:56.610 ,4,1,0.,24.0,0.,24.0,0.,24.0,0.,24.0
1979-07-06 00:09:20.610 ,4,0,0.,24.0,0.,24.0,0.,24.0,0.,24.0
1979-07-06 00:09:44.610 ,3,1,0.,24.0,0.,24.0,0.,24.0,0.,24.0
1979-07-06 00:10:08.610 ,3,0,0.,24.0,0.,24.0,0.,24.0,0.,24.0
1979-07-06 00:10:32.610 ,2,1,0.,24.0,0.,24.0,0.,24.0,0.,24.0
1979-07-06 00:10:56.610 ,2,0,0.,24.0,0.,24.0,0.,24.0,0.,24.0
1979-07-06 00:11:20.610 ,1,1,0.,24.0,0.,24.0,0.,24.0,0.,24.0
1979-07-06 00:11:44.610 ,1,0,0.,24.0,0.,24.0,0.,24.0,0.,24.0
1979-07-06 00:12:08.610 ,0,1,0.,24.0,0.,24.0,0.,24.0,0.,24.0
1979-07-06 00:12:32.610 ,0,0,0.,24.0,0.,24.0,0.,24.0,0.,24.0
1979-07-06 00:12:56.610 ,0,1,0.,24.0,0.,24.0,0.,24.0,0.,24.0
1979-07-06 00:13:20.610 ,0,0,0.,24.0,0.,24.0,0.,24.0,0.,24.0
1979-07-06 00:13:44.610 ,1,1,0.,24.0,0.,24.0,0.,24.0,0.,24.0
1979-07-06 00:14:08.610 ,1,0,0.,24.0,0.,24.0,0.,24.0,0.,24.0
1979-07-06 00:14:32.610 ,2,1,0.,24.0,0.,24.0,0.,24.0,0.,24.0
1979-07-06 00:14:56.610 ,2,0,0.,24.0,0.,24.0,0.,24.0,0.,24.0
1979-07-06 00:15:20.610 ,3,1,1.,24.0,0.,24.0,0.,24.0,0.,24.0
1979-07-06 00:15:44.610 ,3,0,0.,24.0,0.,24.0,0.,24.0,0.,24.0
1979-07-06 00:16:08.610 ,4,1,0.,24.0,0.,24.0,0.,24.0,0.,24.0
1979-07-06 00:16:32.610 ,4,0,0.,24.0,0.,24.0,0.,24.0,0.,24.0
1979-07-06 00:16:56.610 ,5,1,0.,24.0,0.,24.0,0.,24.0,0.,24.0
1979-07-06 00:17:20.610 ,5,0,0.,24.0,0.,24.0,0.,24.0,0.,24.0
1979-07-06 00:17:44.610 ,6,1,0.,24.0,0.,24.0,0.,24.0,0.,24.0
1979-07-06 00:18:08.610 ,6,0,0.,24.0,0.,24.0,0.,24.0,0.,24.0
1979-07-06 00:18:32.610 ,7,0,0.,24.0,0.,24.0,0.,24.0,0.,24.0
1979-07-06 00:18:56.610 ,7,0,0.,24.0,0.,24.0,0.,24.0,0.,24.0
1979-07-06 00:19:20.610 ,5,1,0.,24.0,0.,24.0,0.,24.0,0.,24.0
1979-07-06 00:19:44.610 ,1,1,0.,24.0,0.,24.0,0.,24.0,0.,24.0
1979-07-06 00:20:08.610 ,2,1,0.,24.0,0.,24.0,0.,24.0,0.,24.0
1979-07-06 00:20:32.610 ,6,1,0.,24.0,0.,24.0,0.,24.0,0.,24.0
1979-07-06 00:20:56.610 ,5,1,0.,24.0,0.,24.0,0.,24.0,0.,24.0
1979-07-06 00:21:20.610 ,1,1,0.,24.0,0.,24.0,0.,24.0,0.,24.0
1979-07-06 00:21:44.610 ,2,1,0.,24.0,0.,24.0,0.,24.0,0.,24.0
1979-07-06 00:22:08.610 ,6,1,0.,24.0,0.,24.0,0.,24.0,0.,24.0
1979-07-06 00:22:32.610 ,5,1,0.,24.0,0.,24.0,0.,24.0,0.,24.0
1979-07-06 00:22:56.610 ,1,1,0.,24.0,0.,24.0,0.,24.0,0.,24.0
1979-07-06 00:23:20.610 ,2,1,0.,24.0,0.,24.0,0.,24.0,0.,24.0
1979-07-06 00:23:44.610 ,6,1,0.,24.0,0.,24.0,0.,24.0,0.,24.0
1979-07-06 00:24:08.610 ,5,1,0.,24.0,0.,24.0,0.,24.0,0.,24.0
1979-07-06 00:24:32.610 ,1,1,0.,24.0,0.,24.0,0.,24.0,0.,24.0
1979-07-06 00:24:56.610 ,2,1,0.,24.0,0.,24.0,0.,24.0,0.,24.0
1979-07-06 00:25:20.610 ,6,1,0.,24.0,0.,24.0,0.,24.0,0.,24.0
1979-07-06 00:25:44.610 ,5,1,0.,24.0,0.,24.0,0.,24.0,0.,24.0
1979-07-06 00:26:08.610 ,1,1,0.,24.0,0.,24.0,0.,24.0,0.,24.0
1979-07-06 00:26:32.610 ,2,1,0.,24.0,0.,24.0,0.,24.0,0.,24.0
1979-07-06 00:26:56.610 ,6,1,0.,24.0,0.,24.0,0.,24.0,0.,24.0
1979-07-06 00:27:20.610 ,5,1,0.,24.0,0.,24.0,0.,24.0,0.,24.0
1979-07-06 00:27:44.610 ,1,1,0.,24.0,0.,24.0,0.,24.0,0.,24.0
1979-07-06 00:28:08.610 ,2,1,0.,24.0,0.,24.0,0.,24.0,0.,24.0
1979-07-06 00:28:32.610 ,6,1,0.,24.0,0.,24.0,0.,24.0,0.,24.0
1979-07-06 00:28:56.610 ,5,1,0.,24.0,0.,24.0,0.,24.0,0.,24.0
1979-07-06 00:29:20.610 ,1,1,0.,24.0,0.,24.0,0.,24.0,0.,24.0
1979-07-06 00:29:44.610 ,0,0,0.,24.0,0.,24.0,0.,24.0,0.,24.0
1979-07-06 00:30:08.610 ,0,0,0.,24.0,0.,24.0,0.,24.0,0.,24.0
1979-07-06 00:30:32.610 ,5,1,0.,24.0,0.,24.0,0.,24.0,0.,24.0
1979-07-06 00:30:56.610 ,5,0,0.,24.0,0.,24.0,0.,24.0,0.,24.0
1979-07-06 00:31:20.610 ,4,1,0.,24.0,0.,24.0,0.,24.0,0.,24.0
1979-07-06 00:31:44.610 ,4,0,0.,24.0,0.,24.0,0.,24.0,0.,24.0
1979-07-06 00:32:08.610 ,3,1,0.,24.0,0.,24.0,0.,24.0,0.,24.0
1979-07-06 00:32:32.610 ,3,0,0.,24.0,0.,24.0,0.,24.0,0.,24.0
1979-07-06 00:32:56.610 ,2,1,0.,24.0,0.,24.0,0.,24.0,0.,24.0
1979-07-06 00:33:20.610 ,2,0,0.,24.0,0.,24.0,0.,24.0,0.,24.0
1979-07-06 00:33:44.610 ,1,1,0.,24.0,0.,24.0,0.,24.0,0.,24.0
1979-07-06 00:34:08.610 ,1,0,0.,24.0,0.,24.0,0.,24.0,0.,24.0
1979-07-06 00:34:32.610 ,0,1,0.,24.0,0.,24.0,0.,24.0,0.,24.0
1979-07-06 00:34:56.610 ,0,0,0.,24.0,0.,24.0,0.,24.0,0.,24.0
1979-07-06 00:35:20.610 ,0,1,0.,24.0,0.,24.0,0.,24.0,0.,24.0
1979-07-06 00:35:44.610 ,0,0,0.,24.0,0.,24.0,0.,24.0,0.,24.0
1979-07-06 00:36:08.610 ,1,1,0.,24.0,0.,24.0,0.,24.0,0.,24.0
1979-07-06 00:36:32.610 ,1,0,0.,24.0,0.,24.0,0.,24.0,0.,24.0
1979-07-06 00:36:56.610 ,2,1,0.,24.0,0.,24.0,0.,24.0,0.,24.0
1979-07-06 00:37:20.610 ,2,0,0.,24.0,0.,24.0,0.,24.0,0.,24.0
1979-07-06 00:37:44.610 ,3,1,0.,24.0,0.,24.0,0.,24.0,0.,24.0
1979-07-06 00:38:08.610 ,3,0,0.,24.0,0.,24.0,0.,24.0,0.,24.0
1979-07-06 00:38:32.610 ,4,1,0.,24.0,0.,24.0,0.,24.0,0.,24.0
1979-07-06 00:38:56.610 ,4,0,0.,24.0,0.,24.0,0.,24.0,0.,24.0
1979-07-06 00:39:20.610 ,5,1,0.,24.0,0.,24.0,0.,24.0,0.,24.0
1979-07-06 00:39:44.610 ,5,0,0.,24.0,0.,24.0,0.,24.0,0.,24.0
1979-07-06 00:40:08.610 ,6,1,0.,24.0,0.,24.0,0.,24.0,0.,24.0
1979-07-06 00:40:32.610 ,6,0,0.,24.0,0.,24.0,0.,24.0,0.,24.0
1979-07-06 00:40:56.610 ,7,1,0.,24.0,0.,24.0,0.,24.0,0.,24.0
1979-07-06 00:41:20.610 ,7,0,0.,24.0,0.,24.0,0.,24.0,0.,24.0
1979-07-06 00:41:44.610 ,7,1,0.,24.0,0.,24.0,0.,24.0,0.,24.0
1979-07-06 00:42:08.610 ,7,0,0.,24.0,0.,24.0,0.,24.0,0.,24.0
1979-07-06 00:42:32.610 ,6,1,0.,24.0,0.,24.0,0.,24.0,0.,24.0
1979-07-06 00:42:56.610 ,6,0,0.,24.0,0.,24.0,0.,24.0,0.,24.0
1979-07-06 00:43:20.610 ,5,1,0.,24.0,0.,24.0,0.,24.0,0.,24.0
1979-07-06 00:43:44.610 ,5,0,0.,24.0,0.,24.0,0.,24.0,0.,24.0
1979-07-06 00:44:08.610 ,4,1,0.,24.0,0.,24.0,0.,24.0,0.,24.0
1979-07-06 00:44:32.610 ,4,0,0.,24.0,0.,24.0,0.,24.0,0.,24.0
1979-07-06 00:44:56.610 ,3,1,0.,24.0,0.,24.0,0.,24.0,0.,24.0
1979-07-06 00:45:20.610 ,3,0,0.,24.0,0.,24.0,0.,24.0,0.,24.0
1979-07-06 00:45:44.610 ,2,1,0.,24.0,0.,24.0,0.,24.0,0.,24.0
1979-07-06 00:46:08.610 ,2,0,0.,24.0,0.,24.0,0.,24.0,0.,24.0
1979-07-06 00:46:32.600 ,1,1,0.,24.0,0.,24.0,0.,24.0,0.,24.0
1979-07-06 00:46:56.600 ,1,0,0.,24.0,0.,24.0,0.,24.0,0.,24.0
1979-07-06 00:47:20.600 ,0,1,0.,24.0,0.,24.0,0.,24.0,0.,24.0
1979-07-06 00:47:44.600 ,0,0,0.,24.0,0.,24.0,0.,24.0,0.,24.0
1979-07-06 00:48:08.600 ,0,1,0.,24.0,0.,24.0,0.,24.0,0.,24.0
1979-07-06 00:48:32.600 ,0,0,0.,24.0,0.,24.0,0.,24.0,0.,24.0
1979-07-06 00:48:56.600 ,1,1,0.,24.0,0.,24.0,0.,24.0,0.,24.0
1979-07-06 00:49:20.600 ,1,0,0.,24.0,0.,24.0,0.,24.0,0.,24.0
1979-07-06 00:49:44.600 ,2,1,0.,24.0,0.,24.0,0.,24.0,0.,24.0
1979-07-06 00:50:08.600 ,2,0,0.,24.0,0.,24.0,0.,24.0,0.,24.0
1979-07-06 00:50:32.600 ,3,1,0.,24.0,0.,24.0,0.,24.0,0.,24.0
1979-07-06 00:50:56.600 ,3,0,0.,24.0,0.,24.0,0.,24.0,0.,24.0
1979-07-06 00:51:20.600 ,4,1,0.,24.0,0.,24.0,0.,24.0,0.,24.0
1979-07-06 00:51:44.600 ,4,0,0.,24.0,0.,24.0,0.,24.0,0.,24.0
1979-07-06 00:52:08.600 ,5,1,0.,24.0,0.,24.0,0.,24.0,0.,24.0
1979-07-06 00:52:32.600 ,5,0,0.,24.0,0.,24.0,0.,24.0,0.,24.0
1979-07-06 00:52:56.600 ,6,1,0.,24.0,0.,24.0,0.,24.0,0.,24.0
1979-07-06 00:53:20.600 ,6,0,0.,24.0,0.,24.0,0.,24.0,0.,24.0
1979-07-06 00:53:44.600 ,7,1,0.,24.0,0.,24.0,0.,24.0,0.,24.0
1979-07-06 00:54:08.600 ,7,0,0.,24.0,0.,24.0,0.,24.0,0.,24.0
1979-07-06 00:54:32.600 ,7,1,0.,24.0,0.,24.0,0.,24.0,0.,24.0
1979-07-06 00:54:56.600 ,7,0,0.,24.0,0.,24.0,0.,24.0,0.,24.0
1979-07-06 00:55:20.600 ,6,1,0.,24.0,0.,24.0,0.,24.0,0.,24.0
1979-07-06 00:55:44.600 ,6,0,0.,24.0,0.,24.0,0.,24.0,0.,24.0
1979-07-06 00:56:08.600 ,5,1,0.,24.0,0.,24.0,0.,24.0,0.,24.0
1979-07-06 00:56:32.600 ,5,0,0.,24.0,0.,24.0,0.,24.0,0.,24.0
1979-07-06 00:56:56.600 ,4,1,0.,24.0,0.,24.0,0.,24.0,0.,24.0
1979-07-06 00:57:20.600 ,4,0,0.,24.0,0.,24.0,0.,24.0,0.,24.0
1979-07-06 00:57:44.600 ,3,1,0.,24.0,0.,24.0,0.,24.0,0.,24.0
1979-07-06 00:58:08.600 ,3,0,0.,24.0,0.,24.0,0.,24.0,0.,24.0
1979-07-06 00:58:32.600 ,2,1,0.,24.0,0.,24.0,0.,24.0,0.,24.0
1979-07-06 00:58:56.600 ,2,0,0.,24.0,0.,24.0,0.,24.0,0.,24.0
1979-07-06 00:59:20.600 ,1,1,0.,24.0,0.,24.0,0.,24.0,0.,24.0
1979-07-06 00:59:44.600 ,1,0,0.,24.0,0.,24.0,0.,24.0,0.,24.0
1979-07-06 01:00:08.610 ,0,1,0.,24.0,0.,24.0,0.,24.0,0.,24.0
1979-07-06 01:00:32.610 ,0,0,0.,24.0,0.,24.0,0.,24.0,0.,24.0
1979-07-06 01:00:56.610 ,0,1,0.,24.0,0.,24.0,0.,24.0,0.,24.0
1979-07-06 01:01:20.610 ,0,0,0.,24.0,0.,24.0,0.,24.0,0.,24.0
1979-07-06 01:01:44.610 ,1,1,0.,24.0,0.,24.0,0.,24.0,0.,24.0
1979-07-06 01:02:08.600 ,1,0,0.,24.0,0.,24.0,0.,24.0,0.,24.0
1979-07-06 01:02:32.610 ,2,1,0.,24.0,0.,24.0,0.,24.0,0.,24.0
1979-07-06 01:02:56.610 ,2,0,0.,24.0,0.,24.0,0.,24.0,0.,24.0
1979-07-06 01:03:20.610 ,3,1,0.,24.0,0.,24.0,0.,24.0,0.,24.0
1979-07-06 01:03:44.610 ,3,0,0.,24.0,0.,24.0,0.,24.0,0.,24.0
1979-07-06 01:04:08.600 ,4,1,0.,24.0,0.,24.0,0.,24.0,0.,24.0
1979-07-06 01:04:32.600 ,4,0,0.,24.0,0.,24.0,0.,24.0,0.,24.0
1979-07-06 01:04:56.600 ,5,1,0.,24.0,0.,24.0,0.,24.0,0.,24.0
1979-07-06 01:05:20.600 ,5,0,0.,24.0,0.,24.0,0.,24.0,0.,24.0
1979-07-06 01:05:44.600 ,6,1,0.,24.0,0.,24.0,0.,24.0,0.,24.0
1979-07-06 01:06:08.600 ,6,0,0.,24.0,0.,24.0,0.,24.0,0.,24.0
1979-07-06 01:06:32.600 ,7,0,0.,24.0,0.,24.0,0.,24.0,0.,24.0
1979-07-06 01:06:56.600 ,7,0,0.,24.0,0.,24.0,0.,24.0,0.,24.0
1979-07-06 01:07:20.600 ,5,1,0.,24.0,0.,24.0,0.,24.0,0.,24.0
1979-07-06 01:07:44.600 ,1,1,0.,24.0,0.,24.0,0.,24.0,0.,24.0
1979-07-06 01:08:08.600 ,0,0,,0,,0,,0,,0
1979-07-06 01:08:32.600 ,0,0,,0,,0,,0,,0
1979-07-06 01:09:26.000 ,0,0,0.,24.0,0.,24.0,0.,24.0,0.,24.0
1979-07-06 01:09:44.600 ,2,1,0.,24.0,0.,24.0,0.,24.0,0.,24.0
1979-07-06 01:10:08.600 ,6,1,0.,24.0,0.,24.0,0.,24.0,0.,24.0
1979-07-06 01:10:32.600 ,5,1,0.,24.0,0.,24.0,0.,24.0,0.,24.0
1979-07-06 01:10:56.600 ,1,1,0.,24.0,0.,24.0,0.,24.0,0.,24.0
1979-07-06 01:11:20.600 ,2,1,0.,24.0,0.,24.0,0.,24.0,0.,24.0
1979-07-06 01:11:44.600 ,6,1,0.,24.0,0.,24.0,0.,24.0,0.,24.0
1979-07-06 01:12:08.600 ,5,1,0.,24.0,0.,24.0,0.,24.0,0.,24.0
1979-07-06 01:12:32.600 ,1,1,0.,24.0,0.,24.0,0.,24.0,0.,24.0
1979-07-06 01:12:56.600 ,2,1,0.,24.0,0.,24.0,0.,24.0,0.,24.0
1979-07-06 01:13:20.600 ,6,1,0.,24.0,0.,24.0,0.,24.0,0.,24.0
1979-07-06 01:13:44.600 ,5,1,0.,24.0,0.,24.0,0.,24.0,0.,24.0
1979-07-06 01:14:08.600 ,1,1,0.,24.0,0.,24.0,0.,24.0,0.,24.0
1979-07-06 01:14:32.600 ,2,1,0.,24.0,0.,24.0,0.,24.0,0.,24.0
1979-07-06 01:14:56.600 ,6,1,0.,24.0,0.,24.0,0.,24.0,0.,24.0
1979-07-06 01:15:20.600 ,5,1,0.,24.0,0.,24.0,0.,24.0,0.,24.0
1979-07-06 01:15:44.600 ,1,1,0.,24.0,0.,24.0,0.,24.0,0.,24.0
1979-07-06 01:16:08.600 ,2,1,0.,24.0,0.,24.0,0.,24.0,0.,24.0
1979-07-06 01:16:32.600 ,6,1,0.,24.0,0.,24.0,0.,24.0,0.,24.0
1979-07-06 01:16:56.600 ,5,1,0.,24.0,0.,24.0,0.,24.0,0.,24.0
1979-07-06 01:17:20.600 ,1,1,0.,24.0,0.,24.0,0.,24.0,0.,24.0
1979-07-06 01:17:44.600 ,0,0,0.,24.0,0.,24.0,0.,24.0,0.,24.0
1979-07-06 01:18:08.600 ,0,0,0.,24.0,0.,24.0,0.,24.0,0.,24.0
1979-07-06 01:18:32.600 ,5,1,0.,24.0,0.,24.0,0.,24.0,0.,24.0
1979-07-06 01:18:56.600 ,5,0,0.,24.0,0.,24.0,0.,24.0,0.,24.0
1979-07-06 01:19:20.600 ,4,1,0.,24.0,0.,24.0,0.,24.0,0.,24.0
1979-07-06 01:19:44.600 ,4,0,0.,24.0,0.,24.0,0.,24.0,0.,24.0
1979-07-06 01:20:08.600 ,3,1,0.,24.0,0.,24.0,0.,24.0,0.,24.0
1979-07-06 01:20:32.600 ,3,0,0.,24.0,0.,24.0,0.,24.0,0.,24.0
1979-07-06 01:20:56.600 ,2,1,0.,24.0,0.,24.0,0.,24.0,0.,24.0
1979-07-06 01:21:20.600 ,2,0,0.,24.0,0.,24.0,0.,24.0,0.,24.0
1979-07-06 01:21:44.600 ,1,1,0.,24.0,0.,24.0,0.,24.0,0.,24.0
1979-07-06 01:22:08.600 ,1,0,0.,24.0,0.,24.0,0.,24.0,0.,24.0
1979-07-06 01:22:32.600 ,0,1,0.,24.0,0.,24.0,0.,24.0,0.,24.0
1979-07-06 01:22:56.600 ,0,0,0.,24.0,0.,24.0,0.,24.0,0.,24.0
1979-07-06 01:23:20.600 ,0,1,0.,24.0,0.,24.0,0.,24.0,0.,24.0
1979-07-06 01:23:44.600 ,0,0,0.,24.0,0.,24.0,0.,24.0,0.,24.0
1979-07-06 01:24:08.600 ,1,1,0.,24.0,0.,24.0,0.,24.0,0.,24.0
1979-07-06 01:24:32.600 ,1,0,0.,24.0,0.,24.0,0.,24.0,0.,24.0
1979-07-06 01:24:56.600 ,2,1,0.,24.0,0.,24.0,0.,24.0,0.,24.0
1979-07-06 01:25:20.600 ,2,0,0.,24.0,0.,24.0,0.,24.0,0.,24.0
1979-07-06 01:25:44.600 ,3,1,0.,24.0,0.,24.0,0.,24.0,0.,24.0
1979-07-06 01:26:08.600 ,3,0,0.,24.0,0.,24.0,0.,24.0,0.,24.0
1979-07-06 01:26:32.600 ,4,1,0.,24.0,0.,24.0,0.,24.0,0.,24.0
1979-07-06 01:26:56.600 ,4,0,0.,24.0,0.,24.0,0.,24.0,0.,24.0
1979-07-06 01:27:20.600 ,5,1,0.,24.0,0.,24.0,0.,24.0,0.,24.0
1979-07-06 01:27:44.600 ,5,0,0.,24.0,0.,24.0,0.,24.0,0.,24.0
1979-07-06 01:28:08.600 ,6,1,0.,24.0,0.,24.0,0.,24.0,0.,24.0
1979-07-06 01:28:32.600 ,6,0,0.,24.0,0.,24.0,0.,24.0,0.,24.0
1979-07-06 01:28:56.600 ,7,1,0.,24.0,0.,24.0,0.,24.0,0.,24.0
1979-07-06 01:29:20.600 ,7,0,0.,24.0,0.,24.0,0.,24.0,0.,24.0
1979-07-06 01:29:44.600 ,7,1,0.,24.0,0.,24.0,0.,24.0,0.,24.0
1979-07-06 01:30:08.600 ,7,0,0.,24.0,0.,24.0,0.,24.0,0.,24.0
1979-07-06 01:30:32.600 ,6,1,0.,24.0,0.,24.0,0.,24.0,0.,24.0
1979-07-06 01:30:56.600 ,6,0,0.,24.0,0.,24.0,0.,24.0,0.,24.0
1979-07-06 01:31:20.600 ,5,1,0.,24.0,0.,24.0,0.,24.0,0.,24.0
1979-07-06 01:31:44.600 ,5,0,0.,24.0,0.,24.0,0.,24.0,0.,24.0
1979-07-06 01:32:08.600 ,4,1,0.,24.0,0.,24.0,0.,24.0,0.,24.0
1979-07-06 01:32:32.600 ,4,0,0.,24.0,0.,24.0,0.,24.0,0.,24.0
1979-07-06 01:32:56.600 ,3,1,0.,24.0,0.,24.0,0.,24.0,0.,24.0
1979-07-06 01:33:20.600 ,3,0,0.,24.0,0.,24.0,0.,24.0,0.,24.0
1979-07-06 01:33:44.600 ,2,1,0.,24.0,0.,24.0,0.,24.0,0.,24.0
1979-07-06 01:34:08.600 ,2,0,0.,24.0,0.,24.0,0.,24.0,0.,24.0
1979-07-06 01:34:32.600 ,1,1,0.,24.0,0.,24.0,0.,24.0,0.,24.0
1979-07-06 01:34:56.600 ,1,0,0.,24.0,0.,24.0,0.,24.0,0.,24.0
1979-07-06 01:35:20.600 ,0,1,0.,24.0,0.,24.0,0.,24.0,0.,24.0
1979-07-06 01:35:44.600 ,0,0,0.,24.0,0.,24.0,0.,24.0,0.,24.0
1979-07-06 01:36:08.600 ,0,1,0.,24.0,0.,24.0,0.,24.0,0.,24.0
1979-07-06 01:36:32.600 ,0,0,0.,24.0,0.,24.0,0.,24.0,0.,24.0
1979-07-06 01:36:56.600 ,1,1,0.,24.0,0.,24.0,0.,24.0,0.,24.0
1979-07-06 01:37:20.600 ,1,0,0.,24.0,0.,24.0,0.,24.0,0.,24.0
1979-07-06 01:37:44.600 ,2,1,0.,24.0,0.,24.0,0.,24.0,0.,24.0
1979-07-06 01:38:08.600 ,2,0,0.,24.0,0.,24.0,0.,24.0,0.,24.0
1979-07-06 01:38:32.600 ,3,1,0.,24.0,0.,24.0,0.,24.0,0.,24.0
1979-07-06 01:38:56.600 ,3,0,0.,24.0,0.,24.0,0.,24.0,0.,24.0
1979-07-06 01:39:20.600 ,4,1,0.,24.0,0.,24.0,0.,24.0,0.,24.0
1979-07-06 01:39:44.600 ,4,0,0.,24.0,0.,24.0,0.,24.0,0.,24.0
1979-07-06 01:40:56.600 ,0,0,0.,24.0,0.,24.0,0.,24.0,0.,24.0
1979-07-06 01:41:20.600 ,0,0,0.,24.0,0.,24.0,0.,24.0,0.,24.0
1979-07-06 01:41:44.600 ,7,1,0.,24.0,0.,24.0,0.,24.0,0.,24.0
1979-07-06 01:42:08.600 ,7,0,0.,24.0,0.,24.0,0.,24.0,0.,24.0
1979-07-06 01:42:32.600 ,7,1,0.,24.0,0.,24.0,0.,24.0,0.,24.0
1979-07-06 01:42:56.600 ,7,0,0.,24.0,0.,24.0,0.,24.0,0.,24.0
1979-07-06 01:43:20.600 ,6,1,0.,24.0,0.,24.0,0.,24.0,0.,24.0
1979-07-06 01:43:44.600 ,6,0,0.,24.0,0.,24.0,0.,24.0,0.,24.0
1979-07-06 01:44:08.600 ,5,1,0.,24.0,0.,24.0,0.,24.0,0.,24.0
1979-07-06 01:44:32.600 ,5,0,0.,24.0,0.,24.0,0.,24.0,0.,24.0
1979-07-06 01:44:56.600 ,4,1,0.,24.0,0.,24.0,0.,24.0,0.,24.0
1979-07-06 01:45:20.600 ,4,0,0.,24.0,0.,24.0,0.,24.0,0.,24.0
1979-07-06 01:45:44.600 ,3,1,0.,24.0,0.,24.0,0.,24.0,0.,24.0
1979-07-06 01:46:08.600 ,3,0,0.,24.0,0.,24.0,0.,24.0,0.,24.0
1979-07-06 01:46:32.600 ,2,1,0.,24.0,0.,24.0,0.,24.0,0.,24.0
1979-07-06 01:46:56.600 ,2,0,0.,24.0,0.,24.0,0.,24.0,0.,24.0
1979-07-06 01:47:20.600 ,1,1,0.,24.0,0.,24.0,0.,24.0,0.,24.0
1979-07-06 01:47:44.600 ,1,0,0.,24.0,0.,24.0,0.,24.0,0.,24.0
1979-07-06 01:48:08.600 ,0,1,0.,24.0,0.,24.0,0.,24.0,0.,24.0
1979-07-06 01:48:32.600 ,0,0,0.,24.0,0.,24.0,0.,24.0,0.,24.0
1979-07-06 01:48:56.600 ,0,1,0.,24.0,0.,24.0,0.,24.0,0.,24.0
1979-07-06 01:49:20.600 ,0,0,0.,24.0,0.,24.0,0.,24.0,0.,24.0
1979-07-06 01:49:44.600 ,1,1,0.,24.0,0.,24.0,0.,24.0,0.,24.0
1979-07-06 01:50:08.600 ,1,0,0.,24.0,0.,24.0,0.,24.0,0.,24.0
1979-07-06 01:50:32.600 ,2,1,0.,24.0,0.,24.0,0.,24.0,0.,24.0
1979-07-06 01:50:56.600 ,2,0,0.,24.0,0.,24.0,0.,24.0,0.,24.0
1979-07-06 01:51:20.600 ,3,1,0.,24.0,0.,24.0,0.,24.0,0.,24.0
1979-07-06 01:51:44.600 ,3,0,0.,24.0,0.,24.0,0.,24.0,0.,24.0
1979-07-06 01:52:08.600 ,4,1,0.,24.0,0.,24.0,0.,24.0,0.,24.0
1979-07-06 01:52:32.600 ,4,0,0.,24.0,0.,24.0,0.,24.0,0.,24.0
1979-07-06 01:54:12.800 ,0,0,0.,24.0,0.,24.0,0.,24.0,0.,24.0
1979-07-06 01:54:32.600 ,7,0,0.,24.0,0.,24.0,0.,24.0,0.,24.0
1979-07-06 01:54:56.600 ,7,0,0.,24.0,0.,24.0,0.,24.0,0.,24.0
1979-07-06 01:55:20.600 ,5,1,0.,24.0,0.,24.0,0.,24.0,0.,24.0
1979-07-06 01:55:44.600 ,1,1,0.,24.0,0.,24.0,0.,24.0,0.,24.0
1979-07-06 01:56:08.600 ,2,1,0.,24.0,0.,24.0,0.,24.0,0.,24.0
1979-07-06 01:56:32.600 ,6,1,0.,24.0,0.,24.0,0.,24.0,0.,24.0
1979-07-06 01:56:56.600 ,5,1,0.,24.0,0.,24.0,0.,24.0,0.,24.0
1979-07-06 01:57:20.600 ,1,1,0.,24.0,0.,24.0,0.,24.0,0.,24.0
1979-07-06 01:57:44.600 ,2,1,0.,24.0,0.,24.0,0.,24.0,0.,24.0
1979-07-06 01:58:08.600 ,6,1,0.,24.0,0.,24.0,0.,24.0,0.,24.0
1979-07-06 01:58:32.600 ,5,1,0.,24.0,0.,24.0,0.,24.0,0.,24.0
1979-07-06 01:58:56.600 ,1,1,0.,24.0,0.,24.0,0.,24.0,0.,24.0
1979-07-06 01:59:20.600 ,2,1,0.,24.0,0.,24.0,0.,24.0,0.,24.0
1979-07-06 01:59:44.600 ,6,1,0.,24.0,0.,24.0,0.,24.0,0.,24.0
1979-07-06 02:00:08.600 ,5,1,0.,24.0,0.,24.0,0.,24.0,0.,24.0
1979-07-06 02:00:32.600 ,1,1,0.,24.0,0.,24.0,0.,24.0,0.,24.0
1979-07-06 02:00:56.600 ,2,1,0.,24.0,0.,24.0,0.,24.0,0.,24.0
1979-07-06 02:01:20.600 ,6,1,0.,24.0,0.,24.0,0.,24.0,0.,24.0
1979-07-06 02:01:44.600 ,5,1,0.,24.0,0.,24.0,0.,24.0,0.,24.0
1979-07-06 02:02:08.600 ,1,1,0.,24.0,0.,24.0,0.,24.0,0.,24.0
1979-07-06 02:02:32.600 ,2,1,0.,24.0,0.,24.0,0.,24.0,0.,24.0
1979-07-06 02:02:56.600 ,0,0,0.,24.0,0.,24.0,0.,24.0,0.,24.0
1979-07-06 02:04:37.400 ,0,0,0.,24.0,0.,24.0,0.,24.0,0.,24.0
1979-07-06 02:04:56.600 ,5,1,0.,24.0,0.,24.0,0.,24.0,0.,24.0
1979-07-06 02:05:20.600 ,1,1,0.,24.0,0.,24.0,0.,24.0,0.,24.0
1979-07-06 02:05:44.600 ,0,0,0.,24.0,0.,24.0,0.,24.0,0.,24.0
1979-07-06 02:06:08.600 ,0,0,0.,24.0,0.,24.0,0.,24.0,0.,24.0
1979-07-06 02:06:32.600 ,5,1,0.,24.0,0.,24.0,0.,24.0,0.,24.0
1979-07-06 02:06:56.600 ,5,0,0.,24.0,0.,24.0,0.,24.0,0.,24.0
1979-07-06 02:07:20.600 ,4,1,0.,24.0,0.,24.0,0.,24.0,0.,24.0
1979-07-06 02:07:44.600 ,4,0,0.,24.0,0.,24.0,0.,24.0,0.,24.0
1979-07-06 02:08:08.600 ,3,1,0.,24.0,0.,24.0,0.,24.0,0.,24.0
1979-07-06 02:08:32.600 ,3,0,0.,24.0,0.,24.0,0.,24.0,0.,24.0
1979-07-06 02:08:56.600 ,2,1,0.,24.0,0.,24.0,0.,24.0,0.,24.0
1979-07-06 02:09:20.600 ,2,0,0.,24.0,0.,24.0,0.,24.0,0.,24.0
1979-07-06 02:09:44.600 ,1,1,0.,24.0,0.,24.0,0.,24.0,0.,24.0
1979-07-06 02:10:08.600 ,1,0,0.,24.0,0.,24.0,0.,24.0,0.,24.0
1979-07-06 02:10:32.600 ,0,1,0.,24.0,0.,24.0,0.,24.0,0.,24.0
1979-07-06 02:10:56.600 ,0,0,0.,24.0,0.,24.0,0.,24.0,0.,24.0
1979-07-06 02:11:20.600 ,0,1,0.,24.0,0.,24.0,0.,24.0,0.,24.0
1979-07-06 02:11:44.600 ,0,0,0.,24.0,0.,24.0,0.,24.0,0.,24.0
1979-07-06 02:12:08.600 ,1,1,0.,24.0,0.,24.0,0.,24.0,0.,24.0
1979-07-06 02:12:32.600 ,1,0,0.,24.0,0.,24.0,0.,24.0,0.,24.0
1979-07-06 02:12:56.600 ,2,1,0.,24.0,0.,24.0,0.,24.0,0.,24.0
1979-07-06 02:13:20.600 ,2,0,0.,24.0,0.,24.0,0.,24.0,0.,24.0
1979-07-06 02:13:44.600 ,3,1,0.,24.0,0.,24.0,0.,24.0,0.,24.0
1979-07-06 02:14:08.600 ,3,0,0.,24.0,0.,24.0,0.,24.0,0.,24.0
1979-07-06 02:14:32.600 ,4,1,0.,24.0,0.,24.0,0.,24.0,0.,24.0
1979-07-06 02:14:56.600 ,4,0,0.,24.0,0.,24.0,0.,24.0,0.,24.0
1979-07-06 02:15:20.600 ,5,1,0.,24.0,0.,24.0,0.,24.0,0.,24.0
1979-07-06 02:15:44.600 ,5,0,0.,24.0,0.,24.0,0.,24.0,0.,24.0
1979-07-06 02:16:08.600 ,6,1,0.,24.0,0.,24.0,0.,24.0,0.,24.0
1979-07-06 02:16:32.600 ,6,0,0.,24.0,0.,24.0,0.,24.0,0.,24.0
1979-07-06 02:16:56.600 ,7,1,0.,24.0,0.,24.0,0.,24.0,0.,24.0
1979-07-06 02:17:20.600 ,7,0,0.,24.0,0.,24.0,0.,24.0,0.,24.0
1979-07-06 02:17:44.600 ,7,1,0.,24.0,0.,24.0,0.,24.0,0.,24.0
1979-07-06 02:18:08.600 ,7,0,0.,24.0,0.,24.0,0.,24.0,0.,24.0
1979-07-06 02:18:32.600 ,6,1,0.,24.0,0.,24.0,0.,24.0,0.,24.0
1979-07-06 02:18:56.600 ,6,0,0.,24.0,0.,24.0,0.,24.0,0.,24.0
1979-07-06 02:19:20.600 ,5,1,0.,24.0,0.,24.0,0.,24.0,0.,24.0
1979-07-06 02:19:44.600 ,5,0,0.,24.0,0.,24.0,0.,24.0,0.,24.0
1979-07-06 02:20:08.600 ,4,1,0.,24.0,0.,24.0,0.,24.0,0.,24.0
1979-07-06 02:20:32.600 ,4,0,0.,24.0,0.,24.0,0.,24.0,0.,24.0
1979-07-06 02:20:56.600 ,3,1,0.,24.0,0.,24.0,0.,24.0,0.,24.0
1979-07-06 02:21:20.600 ,3,0,0.,24.0,0.,24.0,0.,24.0,0.,24.0
1979-07-06 02:21:44.600 ,2,1,0.,24.0,0.,24.0,0.,24.0,0.,24.0
1979-07-06 02:22:08.600 ,2,0,0.,24.0,0.,24.0,0.,24.0,0.,24.0
1979-07-06 02:22:32.600 ,1,1,0.,24.0,0.,24.0,0.,24.0,0.,24.0
1979-07-06 02:22:56.600 ,1,0,0.,24.0,0.,24.0,0.,24.0,0.,24.0
1979-07-06 02:24:08.600 ,0,0,0.,24.0,0.,24.0,0.,24.0,0.,24.0
1979-07-06 02:24:32.600 ,0,0,0.,24.0,0.,24.0,0.,24.0,0.,24.0
1979-07-06 02:25:44.600 ,0,0,0.,24.0,0.,24.0,0.,24.0,0.,24.0
1979-07-06 02:26:08.600 ,0,0,0.,24.0,0.,24.0,0.,24.0,0.,24.0
1979-07-06 02:26:32.600 ,3,1,0.,24.0,0.,24.0,0.,24.0,0.,24.0
1979-07-06 02:26:56.600 ,3,0,0.,24.0,0.,24.0,0.,24.0,0.,24.0
1979-07-06 02:27:20.600 ,4,1,0.,24.0,0.,24.0,0.,24.0,0.,24.0
1979-07-06 02:27:44.600 ,4,0,0.,24.0,0.,24.0,0.,24.0,0.,24.0
1979-07-06 02:28:08.600 ,5,1,0.,24.0,0.,24.0,0.,24.0,0.,24.0
1979-07-06 02:28:32.600 ,5,0,0.,24.0,0.,24.0,0.,24.0,0.,24.0
1979-07-06 02:28:56.600 ,0,0,0.,24.0,0.,24.0,0.,24.0,0.,24.0
1979-07-06 02:29:20.600 ,0,0,0.,24.0,0.,24.0,0.,24.0,0.,24.0
1979-07-06 02:29:44.600 ,7,1,0.,24.0,0.,24.0,0.,24.0,0.,24.0
1979-07-06 02:30:08.600 ,7,0,0.,24.0,0.,24.0,0.,24.0,0.,24.0
1979-07-06 02:30:32.600 ,7,1,0.,24.0,0.,24.0,0.,24.0,0.,24.0
1979-07-06 02:30:56.600 ,7,0,0.,24.0,0.,24.0,0.,24.0,0.,24.0
1979-07-06 02:31:20.600 ,6,1,0.,24.0,0.,24.0,0.,24.0,0.,24.0
1979-07-06 02:31:44.600 ,6,0,0.,24.0,0.,24.0,0.,24.0,0.,24.0
1979-07-06 02:32:08.600 ,5,1,0.,24.0,0.,24.0,0.,24.0,0.,24.0
1979-07-06 02:32:32.600 ,5,0,0.,24.0,0.,24.0,0.,24.0,0.,24.0
1979-07-06 02:32:56.600 ,4,1,0.,24.0,0.,24.0,0.,24.0,0.,24.0
1979-07-06 02:33:20.600 ,4,0,0.,24.0,0.,24.0,0.,24.0,0.,24.0
1979-07-06 02:33:44.600 ,3,1,0.,24.0,0.,24.0,0.,24.0,0.,24.0
1979-07-06 02:34:08.600 ,3,0,0.,24.0,0.,24.0,0.,24.0,0.,24.0
1979-07-06 02:34:32.600 ,2,1,0.,24.0,0.,24.0,0.,24.0,0.,24.0
1979-07-06 02:34:56.600 ,2,0,0.,24.0,0.,24.0,0.,24.0,0.,24.0
1979-07-06 02:35:20.600 ,1,1,0.,24.0,0.,24.0,0.,24.0,0.,24.0
1979-07-06 02:35:44.600 ,1,0,0.,24.0,0.,24.0,0.,24.0,0.,24.0
1979-07-06 02:36:08.600 ,0,1,0.,24.0,0.,24.0,0.,24.0,0.,24.0
1979-07-06 02:36:32.600 ,0,0,0.,24.0,0.,24.0,0.,24.0,0.,24.0
1979-07-06 02:36:56.600 ,0,1,0.,24.0,0.,24.0,0.,24.0,0.,24.0
1979-07-06 02:37:20.600 ,0,0,0.,24.0,0.,24.0,0.,24.0,0.,24.0
1979-07-06 02:37:44.600 ,1,1,0.,24.0,0.,24.0,0.,24.0,0.,24.0
1979-07-06 02:38:08.600 ,1,0,0.,24.0,0.,24.0,0.,24.0,0.,24.0
1979-07-06 02:38:32.600 ,2,1,0.,24.0,0.,24.0,0.,24.0,0.,24.0
1979-07-06 02:38:56.600 ,2,0,0.,24.0,0.,24.0,0.,24.0,0.,24.0
1979-07-06 02:39:20.600 ,3,1,0.,24.0,0.,24.0,0.,24.0,0.,24.0
1979-07-06 02:39:44.600 ,3,0,0.,24.0,0.,24.0,0.,24.0,0.,24.0